Date String (YYYY-MM-DD hh:mm:ss) UTC,Instrument flags,Ambient pressure (hPa),Sample flow (lpm),Bypass flow (lpm),Sample temperature (°C),Ambient temperature (°C),ASC tube jacket temperature (°C),LED temperature (°C),Box temperature (°C),Sample RH (%),Span deviation,Mass concentration (μg/m³),Mass concentration (μg/m³),Mass concentration (μg/m³)
DateTimeUTC,F1_M11,P_M11,Q1_M11,Q2_M11,T1_M11,T2_M11,T3_M11,T4_M11,T5_M11,U1_M11,ZSPAN_M11,X0_M11,X2_M11,X1_M11
2023-05-07 23:00:00,,0828.1,5.00,0.00,30.5,29.2,00.0,38.8,32.1,14.2,0000.0,0008.51,0003.45,0002.47
2023-05-07 23:01:00,,0828.1,5.00,0.00,30.5,29.2,00.0,38.8,32.1,14.2,0000.0,0008.56,0003.46,0002.47
2023-05-07 23:02:00,,0828.1,5.00,0.00,30.6,29.3,00.0,38.9,32.2,14.0,0000.0,0008.54,0003.46,0002.48
2023-05-07 23:03:00,,0828.0,5.00,0.00,30.6,29.3,00.0,38.9,32.2,14.0,0000.0,0008.65,0003.46,0002.46
2023-05-07 23:04:00,,0828.1,5.00,0.00,30.6,29.4,00.0,38.9,32.2,14.0,0000.0,0008.71,0003.49,0002.46
2023-05-07 23:05:00,,0828.1,5.00,0.00,30.6,29.4,00.0,38.9,32.2,14.1,0000.0,0008.76,0003.49,0002.45
2023-05-07 23:06:00,,0828.1,5.01,0.00,30.7,29.4,00.0,38.9,32.3,13.8,0000.0,0008.78,0003.45,0002.45
2023-05-07 23:07:00,,0828.0,4.99,0.00,30.7,29.5,00.0,39.0,32.3,13.7,0000.0,0009.06,0003.45,0002.47
2023-05-07 23:08:00,,0828.1,5.00,0.00,30.7,29.5,00.0,39.0,32.3,13.6,0000.0,0009.42,0003.48,0002.49
2023-05-07 23:09:00,,0828.0,4.99,0.00,30.7,28.3,00.0,38.9,32.2,13.7,0000.0,0009.26,0003.44,0002.45
2023-05-07 23:10:00,,0827.9,4.99,0.00,30.6,26.1,00.0,38.8,31.8,13.6,0000.0,0009.20,0003.36,0002.40
2023-05-07 23:11:00,,0827.8,5.01,0.00,30.5,25.4,00.0,38.7,31.6,13.7,0000.0,0008.64,0003.34,0002.37
2023-05-07 23:12:00,,0827.8,5.01,0.00,30.4,25.6,00.0,38.7,31.4,14.2,0000.0,0008.88,0003.36,0002.36
2023-05-07 23:13:00,,0827.8,5.01,0.00,30.3,26.0,00.0,38.7,31.4,14.2,0000.0,0009.17,0003.38,0002.34
2023-05-07 23:14:00,,0828.0,5.00,0.00,30.2,26.4,00.0,38.7,31.4,14.1,0000.0,0009.10,0003.42,0002.36
2023-05-07 23:15:00,,0827.8,5.01,0.00,30.2,26.8,00.0,38.7,31.5,14.1,0000.0,0009.09,0003.42,0002.40
2023-05-07 23:16:00,,0827.8,5.00,0.00,30.2,27.2,00.0,38.6,31.5,14.2,0000.0,0009.22,0003.43,0002.43
2023-05-07 23:17:00,,0827.8,5.00,0.00,30.2,27.6,00.0,38.6,31.6,14.0,0000.0,0009.14,0003.52,0002.45
2023-05-07 23:18:00,,0827.7,5.00,0.00,30.2,27.8,00.0,38.6,31.6,14.6,0000.0,0009.00,0003.54,0002.45
2023-05-07 23:19:00,,0827.8,5.00,0.00,30.2,28.0,00.0,38.6,31.6,15.0,0000.0,0008.59,0003.52,0002.46
2023-05-07 23:20:00,,0827.8,5.00,0.00,30.2,28.2,00.0,38.6,31.7,15.2,0000.0,0008.71,0003.56,0002.48
2023-05-07 23:21:00,,0827.7,5.00,0.00,30.2,28.4,00.0,38.6,31.7,15.1,0000.0,0008.37,0003.55,0002.50
2023-05-07 23:22:00,,0827.8,5.00,0.00,30.2,28.5,00.0,38.6,31.7,15.0,0000.0,0008.18,0003.53,0002.50
2023-05-07 23:23:00,,0827.7,5.00,0.00,30.2,28.6,00.0,38.6,31.7,15.0,0000.0,0008.74,0003.52,0002.50
2023-05-07 23:24:00,,0827.7,5.00,0.00,30.2,28.7,00.0,38.6,31.8,14.7,0000.0,0008.73,0003.49,0002.51
2023-05-07 23:25:00,,0827.7,5.01,0.00,30.3,28.7,00.0,38.6,31.8,14.5,0000.0,0008.71,0003.48,0002.51
2023-05-07 23:26:00,,0827.7,5.01,0.00,30.3,28.8,00.0,38.6,31.9,14.2,0000.0,0008.65,0003.46,0002.53
2023-05-07 23:27:00,,0827.7,4.99,0.00,30.3,28.8,00.0,38.6,31.9,14.1,0000.0,0008.47,0003.49,0002.57
2023-05-07 23:28:00,,0827.7,4.99,0.00,30.3,28.9,00.0,38.6,31.9,14.4,0000.0,0008.24,0003.50,0002.60
2023-05-07 23:29:00,,0827.7,5.00,0.00,30.3,28.9,00.0,38.6,31.9,14.9,0000.0,0008.08,0003.48,0002.60
2023-05-07 23:30:00,,0827.8,5.01,0.00,30.4,29.0,00.0,38.7,31.9,15.1,0000.0,0008.06,0003.48,0002.59
2023-05-07 23:31:00,,0827.8,5.01,0.00,30.4,29.0,00.0,38.7,31.9,15.3,0000.0,0008.05,0003.47,0002.57
2023-05-07 23:32:00,,0827.8,4.99,0.00,30.4,29.0,00.0,38.7,31.9,15.3,0000.0,0008.13,0003.49,0002.57
2023-05-07 23:33:00,,0827.7,4.99,0.00,30.4,29.1,00.0,38.7,32.0,15.4,0000.0,0008.21,0003.52,0002.58
2023-05-07 23:34:00,,0827.8,5.00,0.00,30.4,29.1,00.0,38.7,32.0,15.2,0000.0,0007.67,0003.54,0002.61
2023-05-07 23:35:00,,0827.8,4.99,0.00,30.4,29.2,00.0,38.7,32.1,15.0,0000.0,0006.91,0003.57,0002.64
2023-05-07 23:36:00,,0827.8,5.01,0.00,30.5,29.2,00.0,38.8,32.1,14.5,0000.0,0007.61,0003.55,0002.65
2023-05-07 23:37:00,,0827.9,5.00,0.00,30.5,29.2,00.0,38.8,32.1,14.6,0000.0,0007.74,0003.60,0002.66
2023-05-07 23:38:00,,0827.9,5.00,0.00,30.5,29.2,00.0,38.8,32.1,14.4,0000.0,0009.04,0003.65,0002.66
2023-05-07 23:39:00,,0827.9,5.00,0.00,30.5,29.3,00.0,38.8,32.1,14.8,0000.0,0010.15,0003.59,0002.64
2023-05-07 23:40:00,,0827.9,5.00,0.00,30.6,29.3,00.0,38.8,32.1,15.2,0000.0,0010.90,0003.60,0002.65
2023-05-07 23:41:00,,0827.9,4.99,0.00,30.6,29.3,00.0,38.9,32.2,15.6,0000.0,0010.97,0003.61,0002.65
2023-05-07 23:42:00,,0827.8,5.00,0.00,30.6,29.3,00.0,38.9,32.2,15.2,0000.0,0011.01,0003.64,0002.65
2023-05-07 23:43:00,,0827.8,5.02,0.00,30.6,29.4,00.0,38.9,32.2,15.2,0000.0,0010.97,0003.64,0002.66
2023-05-07 23:44:00,,0827.8,5.01,0.00,30.6,29.4,00.0,38.9,32.2,15.5,0000.0,0011.07,0003.62,0002.64
2023-05-07 23:45:00,,0827.9,5.00,0.00,30.7,29.4,00.0,38.9,32.3,15.5,0000.0,0011.14,0003.58,0002.60
2023-05-07 23:46:00,,0827.9,4.99,0.00,30.7,29.4,00.0,38.9,32.3,15.1,0000.0,0011.34,0003.60,0002.59
2023-05-07 23:47:00,,0827.9,4.99,0.00,30.7,29.4,00.0,39.0,32.3,15.1,0000.0,0011.23,0003.64,0002.58
2023-05-07 23:48:00,,0828.0,5.00,0.00,30.7,29.4,00.0,39.0,32.3,14.9,0000.0,0011.28,0003.61,0002.58
2023-05-07 23:49:00,,0828.1,5.00,0.00,30.7,29.4,00.0,39.0,32.3,15.0,0000.0,0010.40,0003.56,0002.53
2023-05-07 23:50:00,,0828.1,5.01,0.00,30.7,29.4,00.0,39.0,32.3,15.0,0000.0,0009.31,0003.54,0002.50
2023-05-07 23:51:00,,0828.1,5.01,0.00,30.7,29.4,00.0,39.0,32.3,14.4,0000.0,0008.72,0003.57,0002.58
2023-05-07 23:52:00,,0828.0,5.00,0.00,30.7,29.4,00.0,39.0,32.3,14.3,0000.0,0008.80,0003.67,0002.69
2023-05-07 23:53:00,,0828.1,5.00,0.00,30.7,29.4,00.0,39.0,32.3,14.4,0000.0,0008.91,0003.77,0002.81
2023-05-07 23:54:00,,0828.1,4.99,0.00,30.8,29.4,00.0,39.1,32.3,14.4,0000.0,0009.25,0003.83,0002.89
2023-05-07 23:55:00,,0828.1,4.99,0.00,30.8,29.4,00.0,39.1,32.3,14.2,0000.0,0009.88,0003.92,0003.03
2023-05-07 23:56:00,,0828.2,5.00,0.00,30.8,29.4,00.0,39.1,32.3,14.5,0000.0,0010.13,0004.00,0003.12
2023-05-07 23:57:00,,0828.1,5.01,0.00,30.8,29.4,00.0,39.1,32.3,14.9,0000.0,0010.19,0004.02,0003.14
2023-05-07 23:58:00,,0828.1,4.99,0.00,30.8,29.4,00.0,39.1,32.3,15.1,0000.0,0009.82,0003.99,0003.15
2023-05-07 23:59:00,,0828.1,5.00,0.00,30.8,29.5,00.0,39.1,32.4,15.1,0000.0,0009.71,0003.99,0003.15
